Location: Gro�sch�nbrunn
(49.5760°N, 11.8868°E)
Time: 05:11:54
(UTC+00:00)

Resurs 01 Rocket - Pass Details

Date: 18 September 2020
Orbit: 633 x 645 km, 98.0° (Epoch: 20 October)

Event Time Altitude Azimuth Distance (km) Brightness Sun altitude
Exits shadow 20:56:50 18° 265° (W) 1,563 3.9 -31.9°
Maximum altitude 20:57:04 19° 269° (W) 1,560 3.9 -31.9°
Drops below altitude 10° 21:00:12 10° 314° (NW) 2,052 5.1 -32.2°
Sets 21:03:02 0° 333° (NNW) 2,966 6.1 -32.5°
